PAY7260 KJFK-KSTL

Flight info

Callsign PAY7260
Flight time 2h 30m
Altitude 38000
Route RBV Q430 AIR J110 VHP AARCH2
Aircraft A346/H-SDE2E3FGHIJ3J4J5M1RWXY/LB1D1

Departure

Time 2026-05-06 21:33
Airport John F. Kennedy International Airport (KJFK)

Arrival

Time 2026-05-07 00:03
Airport St. Louis Lambert International Airport (KSTL)
Time Latitude Longitude Altitude Speed Heading
2026-05-06 20:56 40.64022 -73.78057 29 ft 0 kts 247°
2026-05-06 21:17 40.64023 -73.78053 29 ft 4 kts 246°
2026-05-06 21:17 40.64027 -73.78040 27 ft 4 kts 249°
2026-05-06 21:18 40.64038 -73.78011 27 ft 4 kts 229°
2026-05-06 21:18 40.64054 -73.77992 27 ft 4 kts 209°
2026-05-06 21:18 40.64065 -73.77988 28 ft 4 kts 163°
2026-05-06 21:18 40.64086 -73.78003 26 ft 4 kts 149°
2026-05-06 21:19 40.64099 -73.78012 27 ft 1 kts 151°
2026-05-06 21:19 40.64100 -73.78013 27 ft 0 kts 151°
2026-05-06 21:22 40.64099 -73.78012 27 ft 1 kts 151°
2026-05-06 21:22 40.64083 -73.78001 26 ft 4 kts 151°
2026-05-06 21:23 40.64048 -73.77976 28 ft 7 kts 153°
2026-05-06 21:23 40.63989 -73.77951 29 ft 10 kts 170°
2026-05-06 21:23 40.63904 -73.77935 29 ft 13 kts 173°
2026-05-06 21:23 40.63799 -73.77918 29 ft 16 kts 173°
2026-05-06 21:24 40.63674 -73.77897 29 ft 19 kts 173°
2026-05-06 21:24 40.63554 -73.77818 29 ft 21 kts 124°
2026-05-06 21:24 40.63521 -73.77721 29 ft 10 kts 75°
2026-05-06 21:24 40.63587 -73.77646 29 ft 14 kts 30°
2026-05-06 21:25 40.63682 -73.77571 28 ft 18 kts 30°
2026-05-06 21:25 40.63827 -73.77459 28 ft 29 kts 30°
2026-05-06 21:25 40.63948 -73.77365 29 ft 9 kts 31°
2026-05-06 21:25 40.64022 -73.77307 28 ft 17 kts 31°
2026-05-06 21:26 40.64140 -73.77214 30 ft 21 kts 31°
2026-05-06 21:26 40.64276 -73.77107 29 ft 24 kts 31°
2026-05-06 21:26 40.64418 -73.77004 29 ft 21 kts 18°
2026-05-06 21:26 40.64567 -73.76947 28 ft 24 kts 30°
2026-05-06 21:27 40.64721 -73.76824 29 ft 26 kts 31°
2026-05-06 21:27 40.64882 -73.76694 30 ft 27 kts 31°
2026-05-06 21:27 40.65024 -73.76584 30 ft 15 kts 30°
2026-05-06 21:27 40.65093 -73.76516 30 ft 12 kts 69°
2026-05-06 21:28 40.65094 -73.76474 30 ft 0 kts 110°
2026-05-06 21:31 40.65092 -73.76469 30 ft 3 kts 110°
2026-05-06 21:31 40.65075 -73.76419 31 ft 9 kts 117°
2026-05-06 21:31 40.65017 -73.76360 31 ft 13 kts 182°
2026-05-06 21:31 40.64959 -73.76400 31 ft 0 kts 212°
2026-05-06 21:32 40.64947 -73.76411 30 ft 16 kts 212°
2026-05-06 21:32 40.63948 -73.77196 30 ft 143 kts 211°
2026-05-06 21:32 40.62930 -73.78005 104 ft 184 kts 209°
2026-05-06 21:33 40.61809 -73.78909 714 ft 189 kts 210°
2026-05-06 21:33 40.60674 -73.79803 1473 ft 189 kts 213°
2026-05-06 21:33 40.59542 -73.80642 2227 ft 188 kts 212°
2026-05-06 21:33 40.58327 -73.81481 2617 ft 205 kts 211°
2026-05-06 21:34 40.57007 -73.82391 3036 ft 223 kts 211°
2026-05-06 21:34 40.55581 -73.83371 3474 ft 240 kts 212°
2026-05-06 21:34 40.54073 -73.84398 4158 ft 245 kts 212°
2026-05-06 21:34 40.52675 -73.85647 4690 ft 244 kts 232°
2026-05-06 21:35 40.52022 -73.86847 4958 ft 242 kts 240°
2026-05-06 21:35 40.51120 -73.88761 5617 ft 247 kts 241°
2026-05-06 21:35 40.50221 -73.90668 6670 ft 244 kts 240°
2026-05-06 21:35 40.49314 -73.92548 7664 ft 243 kts 240°
2026-05-06 21:36 40.48390 -73.94431 8626 ft 245 kts 239°
2026-05-06 21:36 40.47445 -73.96333 9640 ft 245 kts 239°
2026-05-06 21:36 40.46497 -73.98225 10540 ft 248 kts 239°
2026-05-06 21:36 40.45517 -74.00171 11103 ft 264 kts 239°
2026-05-06 21:37 40.44460 -74.02264 11564 ft 282 kts 238°
2026-05-06 21:37 40.43337 -74.04478 12025 ft 300 kts 238°
2026-05-06 21:37 40.42140 -74.06832 12441 ft 319 kts 238°
2026-05-06 21:37 40.40860 -74.09343 12825 ft 336 kts 238°
2026-05-06 21:38 40.39545 -74.11921 13568 ft 342 kts 238°
2026-05-06 21:38 40.38215 -74.14520 14411 ft 344 kts 238°
2026-05-06 21:38 40.36866 -74.17151 15164 ft 349 kts 238°
2026-05-06 21:38 40.35501 -74.19813 15847 ft 355 kts 238°
2026-05-06 21:39 40.34108 -74.22531 16575 ft 360 kts 238°
2026-05-06 21:39 40.32709 -74.25258 17311 ft 364 kts 238°
2026-05-06 21:39 40.31262 -74.28077 18040 ft 370 kts 238°
2026-05-06 21:39 40.29805 -74.30910 18674 ft 375 kts 239°
2026-05-06 21:40 40.28356 -74.33721 19353 ft 377 kts 239°
2026-05-06 21:40 40.26863 -74.36613 20120 ft 378 kts 240°
2026-05-06 21:40 40.25408 -74.39425 20881 ft 378 kts 240°
2026-05-06 21:40 40.23932 -74.42289 21635 ft 379 kts 241°
2026-05-06 21:41 40.22471 -74.45164 22360 ft 378 kts 243°
2026-05-06 21:41 40.21282 -74.48220 23005 ft 376 kts 251°
2026-05-06 21:41 40.20427 -74.51453 23652 ft 375 kts 257°
2026-05-06 21:41 40.19906 -74.54788 24231 ft 374 kts 263°
2026-05-06 21:42 40.19608 -74.58184 24803 ft 376 kts 264°
2026-05-06 21:42 40.19325 -74.61594 25372 ft 377 kts 264°
2026-05-06 21:42 40.19045 -74.65032 25916 ft 380 kts 264°
2026-05-06 21:42 40.18763 -74.68513 26437 ft 382 kts 264°
2026-05-06 21:43 40.18482 -74.72011 26977 ft 385 kts 264°
2026-05-06 21:43 40.18200 -74.75526 27510 ft 387 kts 264°
2026-05-06 21:43 40.17917 -74.79047 28020 ft 390 kts 264°
2026-05-06 21:43 40.17632 -74.82587 28535 ft 392 kts 264°
2026-05-06 21:44 40.17346 -74.86136 29197 ft 391 kts 264°
2026-05-06 21:44 40.17061 -74.89652 29994 ft 387 kts 264°
2026-05-06 21:44 40.16779 -74.93125 30690 ft 383 kts 264°
2026-05-06 21:44 40.16497 -74.96567 31368 ft 379 kts 265°
2026-05-06 21:45 40.16217 -74.99984 32002 ft 376 kts 265°
2026-05-06 21:45 40.15938 -75.03376 32646 ft 372 kts 265°
2026-05-06 21:45 40.15663 -75.06720 33344 ft 368 kts 265°
2026-05-06 21:45 40.15388 -75.10033 34012 ft 364 kts 265°
2026-05-06 21:46 40.15117 -75.13306 34633 ft 359 kts 265°
2026-05-06 21:46 40.14849 -75.16537 35193 ft 356 kts 265°
2026-05-06 21:46 40.14582 -75.19746 35721 ft 353 kts 265°
2026-05-06 21:46 40.14317 -75.22925 36181 ft 351 kts 266°
2026-05-06 21:47 40.14051 -75.26100 36563 ft 350 kts 266°
2026-05-06 21:47 40.13785 -75.29268 36897 ft 351 kts 266°
2026-05-06 21:47 40.13517 -75.32443 37208 ft 352 kts 266°
2026-05-06 21:47 40.13247 -75.35624 37516 ft 352 kts 266°
2026-05-06 21:48 40.12975 -75.38820 37807 ft 353 kts 266°
2026-05-06 21:48 40.12703 -75.42006 37827 ft 353 kts 266°
2026-05-06 21:48 40.12157 -75.48375 37844 ft 351 kts 266°
2026-05-06 21:49 40.11610 -75.54704 37839 ft 350 kts 266°
2026-05-06 21:49 40.11060 -75.61035 37835 ft 350 kts 266°
2026-05-06 21:50 40.10505 -75.67370 37839 ft 350 kts 265°
2026-05-06 21:50 40.09948 -75.73695 37837 ft 350 kts 265°
2026-05-06 21:51 40.09385 -75.80031 37859 ft 350 kts 265°
2026-05-06 21:51 40.08828 -75.86297 37834 ft 348 kts 265°
2026-05-06 21:52 40.08264 -75.92588 37831 ft 348 kts 265°
2026-05-06 21:52 40.07700 -75.98838 37826 ft 348 kts 265°
2026-05-06 21:53 40.07137 -76.05053 37822 ft 348 kts 265°
2026-05-06 21:53 40.06606 -76.10852 37776 ft 348 kts 265°
2026-05-06 21:54 40.06064 -76.16760 37828 ft 349 kts 265°
2026-05-06 21:54 40.05503 -76.22859 37823 ft 348 kts 265°
2026-05-06 21:55 40.04951 -76.28799 37818 ft 348 kts 265°
2026-05-06 21:55 40.04374 -76.34977 37823 ft 348 kts 265°
2026-05-06 21:56 40.03787 -76.41223 37825 ft 348 kts 265°
2026-05-06 21:56 40.03205 -76.47375 37821 ft 348 kts 265°
2026-05-06 21:57 40.02628 -76.53462 37823 ft 347 kts 265°
2026-05-06 21:57 40.02051 -76.59483 37826 ft 347 kts 264°
2026-05-06 21:58 40.01458 -76.65620 37821 ft 347 kts 264°
2026-05-06 21:58 40.00881 -76.71573 37828 ft 347 kts 264°
2026-05-06 21:59 40.00307 -76.77458 37827 ft 347 kts 264°
2026-05-06 21:59 39.99739 -76.83249 37827 ft 347 kts 264°
2026-05-06 22:00 39.99170 -76.89036 37836 ft 347 kts 264°
2026-05-06 22:00 39.98593 -76.94875 37833 ft 346 kts 264°
2026-05-06 22:01 39.98030 -77.00520 37836 ft 346 kts 264°
2026-05-06 22:01 39.97483 -77.05995 37834 ft 346 kts 264°
2026-05-06 22:02 39.96946 -77.11342 37834 ft 346 kts 264°
2026-05-06 22:02 39.96458 -77.16170 37834 ft 346 kts 264°
2026-05-06 22:03 39.95978 -77.20892 37831 ft 346 kts 264°
2026-05-06 22:03 39.95539 -77.25758 37852 ft 346 kts 266°
2026-05-06 22:04 39.95304 -77.31106 37839 ft 345 kts 269°
2026-05-06 22:04 39.95317 -77.35954 37838 ft 345 kts 271°
2026-05-06 22:05 39.95465 -77.41000 37848 ft 344 kts 271°
2026-05-06 22:05 39.95630 -77.46454 37849 ft 344 kts 271°
2026-05-06 22:06 39.95799 -77.51839 37852 ft 344 kts 271°
2026-05-06 22:06 39.95943 -77.56419 37857 ft 344 kts 271°
2026-05-06 22:07 39.96093 -77.61165 37864 ft 344 kts 271°
2026-05-06 22:07 39.96242 -77.65932 37861 ft 344 kts 271°
2026-05-06 22:08 39.96389 -77.70771 37862 ft 344 kts 271°
2026-05-06 22:08 39.96545 -77.75967 37863 ft 344 kts 271°
2026-05-06 22:09 39.96686 -77.80687 37865 ft 344 kts 271°
2026-05-06 22:09 39.96832 -77.85687 37868 ft 344 kts 271°
2026-05-06 22:10 39.96990 -77.91158 37864 ft 344 kts 271°
2026-05-06 22:10 39.97148 -77.96693 37876 ft 344 kts 271°
2026-05-06 22:11 39.97316 -78.02586 37875 ft 344 kts 270°
2026-05-06 22:11 39.97486 -78.08826 37875 ft 344 kts 270°
2026-05-06 22:12 39.97655 -78.15064 37880 ft 344 kts 270°
2026-05-06 22:12 39.97817 -78.21248 37873 ft 344 kts 270°
2026-05-06 22:13 39.97978 -78.27490 37885 ft 344 kts 270°
2026-05-06 22:13 39.98137 -78.33737 37887 ft 344 kts 270°
2026-05-06 22:14 39.98292 -78.39980 37891 ft 344 kts 270°
2026-05-06 22:14 39.98443 -78.46221 37887 ft 344 kts 270°
2026-05-06 22:15 39.98591 -78.52478 37880 ft 345 kts 270°
2026-05-06 22:15 39.98736 -78.58726 37887 ft 344 kts 270°
2026-05-06 22:16 39.98878 -78.64968 37890 ft 344 kts 270°
2026-05-06 22:16 39.99016 -78.71198 37900 ft 345 kts 270°
2026-05-06 22:17 39.99151 -78.77456 37897 ft 345 kts 270°
2026-05-06 22:17 39.99283 -78.83722 37897 ft 345 kts 270°
2026-05-06 22:18 39.99408 -78.89821 37906 ft 345 kts 270°
2026-05-06 22:18 39.99533 -78.96028 37905 ft 345 kts 270°
2026-05-06 22:19 39.99654 -79.02287 37913 ft 345 kts 270°
2026-05-06 22:19 39.99771 -79.08552 37936 ft 344 kts 270°
2026-05-06 22:20 39.99886 -79.14790 37926 ft 343 kts 270°
2026-05-06 22:20 39.99998 -79.21027 37922 ft 343 kts 270°
2026-05-06 22:21 40.00106 -79.27253 37934 ft 343 kts 270°
2026-05-06 22:21 40.00210 -79.33471 37943 ft 343 kts 270°
2026-05-06 22:22 40.00290 -79.38436 37950 ft 343 kts 270°
2026-05-06 22:22 40.00388 -79.44679 37999 ft 343 kts 270°
2026-05-06 22:23 40.00482 -79.50894 37977 ft 342 kts 270°
2026-05-06 22:23 40.00586 -79.58055 37969 ft 341 kts 270°
2026-05-06 22:24 40.00660 -79.63167 37956 ft 339 kts 270°
2026-05-06 22:24 40.00741 -79.69191 37940 ft 338 kts 270°
2026-05-06 22:25 40.00819 -79.75294 37945 ft 338 kts 270°
2026-05-06 22:25 40.00895 -79.81377 37961 ft 338 kts 270°
2026-05-06 22:26 40.00964 -79.87268 37945 ft 337 kts 270°
2026-05-06 22:26 40.01034 -79.93352 37939 ft 337 kts 270°
2026-05-06 22:27 40.01100 -79.99432 37945 ft 337 kts 270°
2026-05-06 22:27 40.01162 -80.05367 37949 ft 337 kts 270°
2026-05-06 22:28 40.01222 -80.11438 37948 ft 337 kts 270°
2026-05-06 22:28 40.01278 -80.17522 37991 ft 337 kts 270°
2026-05-06 22:29 40.01332 -80.23488 37962 ft 335 kts 270°
2026-05-06 22:29 40.01380 -80.29268 37958 ft 335 kts 270°
2026-05-06 22:30 40.01425 -80.35117 37961 ft 335 kts 269°
2026-05-06 22:30 40.01466 -80.40837 37958 ft 335 kts 269°
2026-05-06 22:31 40.01506 -80.46729 37953 ft 335 kts 269°
2026-05-06 22:31 40.01544 -80.52592 37953 ft 334 kts 269°
2026-05-06 22:32 40.01577 -80.58438 37964 ft 333 kts 269°
2026-05-06 22:32 40.01609 -80.64379 37940 ft 333 kts 269°
2026-05-06 22:33 40.01634 -80.69789 37948 ft 333 kts 269°
2026-05-06 22:33 40.01658 -80.75508 37962 ft 333 kts 269°
2026-05-06 22:34 40.01678 -80.80857 37948 ft 333 kts 269°
2026-05-06 22:34 40.01645 -80.85835 37950 ft 333 kts 268°
2026-05-06 22:35 40.01577 -80.90852 37945 ft 332 kts 268°
2026-05-06 22:35 40.01508 -80.96155 37956 ft 331 kts 268°
2026-05-06 22:36 40.01436 -81.01210 37952 ft 331 kts 268°
2026-05-06 22:36 40.01366 -81.06182 37951 ft 331 kts 268°
2026-05-06 22:37 40.01299 -81.10776 37948 ft 331 kts 268°
2026-05-06 22:37 40.01234 -81.15160 37950 ft 331 kts 268°
2026-05-06 22:38 40.01165 -81.19711 37949 ft 331 kts 268°
2026-05-06 22:38 40.01089 -81.24505 37952 ft 331 kts 268°
2026-05-06 22:39 40.01005 -81.29022 37974 ft 331 kts 268°
2026-05-06 22:39 40.00918 -81.33699 37958 ft 331 kts 268°
2026-05-06 22:40 40.00829 -81.38229 37958 ft 331 kts 268°
2026-05-06 22:40 40.00721 -81.43644 37959 ft 331 kts 268°
2026-05-06 22:41 40.00537 -81.52553 37955 ft 331 kts 268°
2026-05-06 22:42 40.00419 -81.58449 37973 ft 331 kts 268°
2026-05-06 22:42 40.00299 -81.64424 37971 ft 331 kts 267°
2026-05-06 22:43 40.00182 -81.70125 37978 ft 331 kts 267°
2026-05-06 22:43 40.00058 -81.75937 37962 ft 331 kts 267°
2026-05-06 22:44 39.99933 -81.81662 37960 ft 331 kts 267°
2026-05-06 22:44 39.99806 -81.87324 37962 ft 331 kts 267°
2026-05-06 22:45 39.99676 -81.93037 37960 ft 331 kts 267°
2026-05-06 22:45 39.99551 -81.98427 37959 ft 331 kts 267°
2026-05-06 22:46 39.99411 -82.04304 37962 ft 331 kts 267°
2026-05-06 22:46 39.99265 -82.10323 37961 ft 331 kts 267°
2026-05-06 22:47 39.99115 -82.16343 37965 ft 331 kts 267°
2026-05-06 22:47 39.98964 -82.22354 37950 ft 330 kts 267°
2026-05-06 22:48 39.98809 -82.28333 37968 ft 329 kts 267°
2026-05-06 22:48 39.98652 -82.34301 37981 ft 329 kts 267°
2026-05-06 22:49 39.98491 -82.40279 38002 ft 329 kts 267°
2026-05-06 22:49 39.98331 -82.46208 37985 ft 325 kts 266°
2026-05-06 22:50 39.98166 -82.52092 37978 ft 324 kts 266°
2026-05-06 22:50 39.97999 -82.57973 37981 ft 324 kts 266°
2026-05-06 22:51 39.97829 -82.63837 37984 ft 324 kts 266°
2026-05-06 22:51 39.97656 -82.69716 37983 ft 324 kts 266°
2026-05-06 22:52 39.97480 -82.75594 37989 ft 324 kts 266°
2026-05-06 22:52 39.97302 -82.81468 37993 ft 324 kts 266°
2026-05-06 22:53 39.97120 -82.87341 37990 ft 324 kts 266°
2026-05-06 22:53 39.96935 -82.93208 37991 ft 323 kts 266°
2026-05-06 22:54 39.96746 -82.99080 37991 ft 323 kts 266°
2026-05-06 22:54 39.96571 -83.04952 38018 ft 324 kts 267°
2026-05-06 22:55 39.96471 -83.10824 38016 ft 324 kts 267°
2026-05-06 22:55 39.96366 -83.16702 38042 ft 324 kts 267°
2026-05-06 22:56 39.96215 -83.22527 38018 ft 323 kts 266°
2026-05-06 22:56 39.96014 -83.28383 38014 ft 323 kts 266°
2026-05-06 22:57 39.95812 -83.34240 38012 ft 323 kts 266°
2026-05-06 22:57 39.95609 -83.40094 38009 ft 323 kts 266°
2026-05-06 22:58 39.95403 -83.45949 38026 ft 323 kts 266°
2026-05-06 22:58 39.95195 -83.51798 38026 ft 322 kts 266°
2026-05-06 22:59 39.94986 -83.57649 38040 ft 322 kts 265°
2026-05-06 22:59 39.94771 -83.63496 38023 ft 323 kts 265°
2026-05-06 23:00 39.94553 -83.69348 37998 ft 322 kts 265°
2026-05-06 23:00 39.94334 -83.75189 37998 ft 322 kts 265°
2026-05-06 23:01 39.94112 -83.80994 38002 ft 322 kts 265°
2026-05-06 23:01 39.93886 -83.86841 38006 ft 323 kts 265°
2026-05-06 23:02 39.93659 -83.92686 38011 ft 323 kts 265°
2026-05-06 23:02 39.93427 -83.98545 37997 ft 323 kts 265°
2026-05-06 23:03 39.93191 -84.04415 38003 ft 324 kts 265°
2026-05-06 23:03 39.92952 -84.10280 38017 ft 324 kts 265°
2026-05-06 23:04 39.92711 -84.16151 38014 ft 324 kts 265°
2026-05-06 23:04 39.92465 -84.22030 38016 ft 323 kts 265°
2026-05-06 23:05 39.92217 -84.27893 38012 ft 324 kts 265°
2026-05-06 23:05 39.91968 -84.33764 38029 ft 324 kts 265°
2026-05-06 23:06 39.91715 -84.39647 38012 ft 324 kts 265°
2026-05-06 23:06 39.91459 -84.45527 38011 ft 324 kts 265°
2026-05-06 23:07 39.91201 -84.51362 38014 ft 324 kts 265°
2026-05-06 23:07 39.90938 -84.57232 38022 ft 324 kts 265°
2026-05-06 23:08 39.90673 -84.63102 38015 ft 324 kts 265°
2026-05-06 23:08 39.90407 -84.68963 38025 ft 323 kts 264°
2026-05-06 23:09 39.90139 -84.74791 38028 ft 323 kts 264°
2026-05-06 23:09 39.89865 -84.80648 38024 ft 323 kts 264°
2026-05-06 23:10 39.89589 -84.86494 38027 ft 323 kts 264°
2026-05-06 23:10 39.89310 -84.92343 38026 ft 323 kts 264°
2026-05-06 23:11 39.89028 -84.98186 38022 ft 323 kts 264°
2026-05-06 23:11 39.88743 -85.04038 38023 ft 323 kts 264°
2026-05-06 23:12 39.88455 -85.09889 38027 ft 323 kts 264°
2026-05-06 23:12 39.88164 -85.15738 38023 ft 323 kts 264°
2026-05-06 23:13 39.87869 -85.21604 38023 ft 323 kts 264°
2026-05-06 23:13 39.87574 -85.27412 38021 ft 323 kts 264°
2026-05-06 23:14 39.87276 -85.33208 38011 ft 323 kts 264°
2026-05-06 23:14 39.87024 -85.38093 38002 ft 323 kts 264°
2026-05-06 23:15 39.86718 -85.43945 38017 ft 323 kts 264°
2026-05-06 23:15 39.86411 -85.49791 38009 ft 323 kts 264°
2026-05-06 23:16 39.86099 -85.55640 38013 ft 323 kts 264°
2026-05-06 23:16 39.85787 -85.61454 38020 ft 323 kts 264°
2026-05-06 23:17 39.85469 -85.67306 38019 ft 323 kts 264°
2026-05-06 23:17 39.85147 -85.73198 38019 ft 323 kts 264°
2026-05-06 23:18 39.84823 -85.79044 38019 ft 323 kts 264°
2026-05-06 23:18 39.84498 -85.84881 38019 ft 323 kts 264°
2026-05-06 23:19 39.84167 -85.90755 38014 ft 323 kts 264°
2026-05-06 23:19 39.83833 -85.96639 38016 ft 323 kts 264°
2026-05-06 23:20 39.83496 -86.02526 38018 ft 323 kts 264°
2026-05-06 23:20 39.83158 -86.08365 38026 ft 323 kts 264°
2026-05-06 23:20 39.82988 -86.11284 37794 ft 324 kts 263°
2026-05-06 23:21 39.82817 -86.14224 37530 ft 324 kts 263°
2026-05-06 23:21 39.82645 -86.17153 37266 ft 324 kts 263°
2026-05-06 23:21 39.82472 -86.20091 37033 ft 325 kts 263°
2026-05-06 23:21 39.82297 -86.23029 36778 ft 325 kts 263°
2026-05-06 23:22 39.82122 -86.25970 36527 ft 326 kts 263°
2026-05-06 23:22 39.81931 -86.28919 36280 ft 326 kts 262°
2026-05-06 23:22 39.81658 -86.31845 36028 ft 326 kts 261°
2026-05-06 23:22 39.81303 -86.34759 35775 ft 326 kts 259°
2026-05-06 23:23 39.80865 -86.37675 35539 ft 326 kts 258°
2026-05-06 23:23 39.80357 -86.40514 35305 ft 326 kts 256°
2026-05-06 23:23 39.79771 -86.43333 35058 ft 319 kts 255°
2026-05-06 23:23 39.79120 -86.46082 34819 ft 317 kts 254°
2026-05-06 23:24 39.78462 -86.48821 34592 ft 317 kts 254°
2026-05-06 23:24 39.77801 -86.51581 34357 ft 317 kts 254°
2026-05-06 23:24 39.77140 -86.54323 34126 ft 318 kts 253°
2026-05-06 23:24 39.76472 -86.57083 33917 ft 318 kts 253°
2026-05-06 23:25 39.75806 -86.59828 33650 ft 319 kts 253°
2026-05-06 23:25 39.75132 -86.62585 33304 ft 321 kts 253°
2026-05-06 23:25 39.74451 -86.65360 33045 ft 323 kts 253°
2026-05-06 23:25 39.73767 -86.68149 32796 ft 324 kts 253°
2026-05-06 23:26 39.73077 -86.70955 32539 ft 326 kts 253°
2026-05-06 23:26 39.72383 -86.73772 32274 ft 327 kts 253°
2026-05-06 23:26 39.71688 -86.76589 32026 ft 328 kts 253°
2026-05-06 23:26 39.70987 -86.79425 31775 ft 330 kts 253°
2026-05-06 23:27 39.70284 -86.82262 31528 ft 331 kts 253°
2026-05-06 23:27 39.69577 -86.85115 31285 ft 332 kts 253°
2026-05-06 23:27 39.68864 -86.87988 31044 ft 334 kts 253°
2026-05-06 23:27 39.68148 -86.90866 30805 ft 335 kts 253°
2026-05-06 23:28 39.67430 -86.93750 30565 ft 336 kts 253°
2026-05-06 23:28 39.66708 -86.96650 30371 ft 337 kts 252°
2026-05-06 23:28 39.65987 -86.99541 30130 ft 337 kts 252°
2026-05-06 23:29 39.64545 -87.05305 30046 ft 338 kts 252°
2026-05-06 23:29 39.63073 -87.11176 30043 ft 338 kts 252°
2026-05-06 23:30 39.61637 -87.16891 30045 ft 338 kts 252°
2026-05-06 23:30 39.60174 -87.22697 30045 ft 338 kts 252°
2026-05-06 23:31 39.58705 -87.28518 30045 ft 338 kts 252°
2026-05-06 23:31 39.57238 -87.34314 30071 ft 338 kts 252°
2026-05-06 23:32 39.55773 -87.40088 30047 ft 336 kts 252°
2026-05-06 23:32 39.54306 -87.45856 30013 ft 338 kts 252°
2026-05-06 23:33 39.52827 -87.51660 30040 ft 339 kts 252°
2026-05-06 23:33 39.51345 -87.57459 30045 ft 339 kts 252°
2026-05-06 23:34 39.49861 -87.63257 30046 ft 339 kts 252°
2026-05-06 23:34 39.48373 -87.69053 30047 ft 339 kts 252°
2026-05-06 23:35 39.46887 -87.74835 30057 ft 337 kts 252°
2026-05-06 23:35 39.45400 -87.80596 30050 ft 337 kts 252°
2026-05-06 23:36 39.43910 -87.86360 30047 ft 337 kts 252°
2026-05-06 23:36 39.42427 -87.92082 30047 ft 337 kts 252°
2026-05-06 23:37 39.40931 -87.97838 30049 ft 337 kts 252°
2026-05-06 23:37 39.39418 -88.03644 30051 ft 337 kts 252°
2026-05-06 23:38 39.37970 -88.09380 30067 ft 337 kts 253°
2026-05-06 23:38 39.36541 -88.15143 30052 ft 336 kts 253°
2026-05-06 23:39 39.35108 -88.20893 30056 ft 335 kts 252°
2026-05-06 23:39 39.33604 -88.26618 29973 ft 336 kts 252°
2026-05-06 23:40 39.32073 -88.32360 30046 ft 338 kts 252°
2026-05-06 23:40 39.30537 -88.38114 30054 ft 338 kts 252°
2026-05-06 23:41 39.29000 -88.43865 29970 ft 339 kts 252°
2026-05-06 23:41 39.28229 -88.46741 29199 ft 341 kts 252°
2026-05-06 23:41 39.27439 -88.49695 27922 ft 351 kts 252°
2026-05-06 23:41 39.26631 -88.52707 27080 ft 352 kts 252°
2026-05-06 23:42 39.25836 -88.55664 26577 ft 345 kts 252°
2026-05-06 23:42 39.25052 -88.58574 26065 ft 339 kts 251°
2026-05-06 23:42 39.24281 -88.61437 25513 ft 336 kts 251°
2026-05-06 23:42 39.23518 -88.64269 25012 ft 332 kts 251°
2026-05-06 23:43 39.22763 -88.67068 24479 ft 329 kts 251°
2026-05-06 23:43 39.22014 -88.69842 23984 ft 326 kts 251°
2026-05-06 23:43 39.21269 -88.72599 23467 ft 323 kts 251°
2026-05-06 23:43 39.20528 -88.75336 22923 ft 319 kts 251°
2026-05-06 23:44 39.19798 -88.78026 22447 ft 315 kts 251°
2026-05-06 23:44 39.19074 -88.80693 21974 ft 312 kts 251°
2026-05-06 23:44 39.18359 -88.83326 21530 ft 310 kts 252°
2026-05-06 23:44 39.17672 -88.85852 21105 ft 308 kts 252°
2026-05-06 23:45 39.16940 -88.88544 20641 ft 308 kts 252°
2026-05-06 23:45 39.16240 -88.91116 20248 ft 308 kts 252°
2026-05-06 23:45 39.15519 -88.93763 19839 ft 308 kts 252°
2026-05-06 23:45 39.14787 -88.96451 19543 ft 327 kts 252°
2026-05-06 23:46 39.14034 -88.99213 19305 ft 333 kts 252°
2026-05-06 23:46 39.13259 -89.02046 19064 ft 335 kts 252°
2026-05-06 23:46 39.12484 -89.04874 18828 ft 335 kts 252°
2026-05-06 23:46 39.11705 -89.07709 18559 ft 335 kts 252°
2026-05-06 23:47 39.10926 -89.10542 18318 ft 334 kts 252°
2026-05-06 23:47 39.10152 -89.13360 18049 ft 333 kts 252°
2026-05-06 23:47 39.09403 -89.16187 17775 ft 332 kts 253°
2026-05-06 23:47 39.08743 -89.19060 17501 ft 332 kts 255°
2026-05-06 23:48 39.08102 -89.21912 17229 ft 331 kts 255°
2026-05-06 23:48 39.07465 -89.24744 16966 ft 330 kts 255°
2026-05-06 23:48 39.06826 -89.27584 16591 ft 329 kts 255°
2026-05-06 23:48 39.06191 -89.30406 16164 ft 327 kts 255°
2026-05-06 23:49 39.05559 -89.33209 15760 ft 324 kts 255°
2026-05-06 23:49 39.04928 -89.36009 15333 ft 322 kts 255°
2026-05-06 23:49 39.04302 -89.38785 14911 ft 319 kts 255°
2026-05-06 23:49 39.03683 -89.41523 14482 ft 317 kts 255°
2026-05-06 23:50 39.03070 -89.44235 14066 ft 314 kts 255°
2026-05-06 23:50 39.01853 -89.49605 13166 ft 309 kts 255°
2026-05-06 23:50 39.01248 -89.52269 12725 ft 307 kts 255°
2026-05-06 23:51 39.00649 -89.54902 12283 ft 306 kts 255°
2026-05-06 23:51 38.99929 -89.57485 11840 ft 308 kts 248°
2026-05-06 23:51 38.98865 -89.59899 11395 ft 313 kts 239°
2026-05-06 23:51 38.97480 -89.62090 10947 ft 319 kts 231°
2026-05-06 23:52 38.95913 -89.64133 10489 ft 322 kts 229°
2026-05-06 23:52 38.94296 -89.66180 10019 ft 317 kts 229°
2026-05-06 23:52 38.92767 -89.68097 9876 ft 297 kts 229°
2026-05-06 23:52 38.91339 -89.69886 9842 ft 276 kts 229°
2026-05-06 23:53 38.89979 -89.71603 9903 ft 273 kts 230°
2026-05-06 23:53 38.88625 -89.73320 9914 ft 273 kts 230°
2026-05-06 23:53 38.87277 -89.75025 9925 ft 272 kts 230°
2026-05-06 23:53 38.86011 -89.76628 9641 ft 274 kts 229°
2026-05-06 23:54 38.84652 -89.78346 9258 ft 273 kts 229°
2026-05-06 23:54 38.83297 -89.80055 8905 ft 272 kts 229°
2026-05-06 23:54 38.81954 -89.81748 8562 ft 270 kts 229°
2026-05-06 23:54 38.80658 -89.83382 8237 ft 269 kts 229°
2026-05-06 23:55 38.79291 -89.85105 7892 ft 268 kts 229°
2026-05-06 23:55 38.77961 -89.86780 7556 ft 267 kts 229°
2026-05-06 23:55 38.76613 -89.88474 7210 ft 267 kts 229°
2026-05-06 23:55 38.75317 -89.90113 6884 ft 265 kts 229°
2026-05-06 23:56 38.74007 -89.91778 6563 ft 264 kts 229°
2026-05-06 23:56 38.72696 -89.93444 6223 ft 265 kts 229°
2026-05-06 23:56 38.71398 -89.95115 5879 ft 264 kts 232°
2026-05-06 23:56 38.70349 -89.97008 5594 ft 258 kts 245°
2026-05-06 23:57 38.69691 -89.99124 5302 ft 254 kts 258°
2026-05-06 23:57 38.69389 -90.01332 5036 ft 249 kts 264°
2026-05-06 23:57 38.69067 -90.03466 4993 ft 237 kts 257°
2026-05-06 23:57 38.68583 -90.05427 4987 ft 224 kts 255°
2026-05-06 23:58 38.68072 -90.07309 4973 ft 224 kts 254°
2026-05-06 23:58 38.67549 -90.09187 4733 ft 223 kts 253°
2026-05-06 23:58 38.67189 -90.10446 4565 ft 221 kts 253°
2026-05-06 23:58 38.66662 -90.12289 4301 ft 220 kts 253°
2026-05-06 23:59 38.66134 -90.14126 4024 ft 215 kts 253°
2026-05-06 23:59 38.65636 -90.15874 3759 ft 209 kts 258°
2026-05-06 23:59 38.65688 -90.17642 3498 ft 195 kts 299°
2026-05-06 23:59 38.66407 -90.19038 3310 ft 182 kts 306°
2026-05-07 00:00 38.67098 -90.20363 3034 ft 175 kts 306°
2026-05-07 00:00 38.67748 -90.21641 2799 ft 166 kts 306°
2026-05-07 00:00 38.68349 -90.22841 2555 ft 154 kts 306°
2026-05-07 00:00 38.68914 -90.23972 2502 ft 149 kts 306°
2026-05-07 00:01 38.69453 -90.25051 2311 ft 150 kts 306°
2026-05-07 00:01 38.70010 -90.26170 2030 ft 148 kts 306°
2026-05-07 00:01 38.70561 -90.27284 1813 ft 147 kts 306°
2026-05-07 00:01 38.71111 -90.28392 1610 ft 147 kts 306°
2026-05-07 00:02 38.71662 -90.29495 1397 ft 147 kts 304°
2026-05-07 00:02 38.72208 -90.30600 1210 ft 146 kts 304°
2026-05-07 00:02 38.72748 -90.31702 1023 ft 146 kts 304°
2026-05-07 00:02 38.73293 -90.32799 784 ft 145 kts 304°
2026-05-07 00:03 38.73824 -90.33892 587 ft 143 kts 304°
2026-05-07 00:03 38.74308 -90.34866 543 ft 102 kts 303°
2026-05-07 00:03 38.74554 -90.35362 564 ft 29 kts 302°
2026-05-07 00:03 38.74633 -90.35524 563 ft 12 kts 301°
2026-05-07 00:04 38.74665 -90.35598 574 ft 6 kts 289°
2026-05-07 00:04 38.74668 -90.35623 569 ft 0 kts 271°
2026-05-07 00:04 38.74668 -90.35631 573 ft 1 kts 278°
2026-05-07 00:04 38.74699 -90.35703 573 ft 15 kts 299°
2026-05-07 00:05 38.74742 -90.35848 571 ft 19 kts 281°
2026-05-07 00:05 38.74748 -90.36024 570 ft 20 kts 271°
2026-05-07 00:05 38.74741 -90.36178 552 ft 14 kts 250°
2026-05-07 00:05 38.74672 -90.36283 550 ft 16 kts 222°
2026-05-07 00:06 38.74606 -90.36402 547 ft 10 kts 234°
2026-05-07 00:06 38.74598 -90.36417 547 ft 1 kts 235°
2026-05-07 00:06 38.74577 -90.36456 547 ft 9 kts 234°
2026-05-07 00:06 38.74518 -90.36540 546 ft 14 kts 220°
2026-05-07 00:07 38.74471 -90.36623 547 ft 10 kts 248°
2026-05-07 00:07 38.74457 -90.36675 549 ft 5 kts 252°
2026-05-07 00:07 38.74455 -90.36681 552 ft 1 kts 252°
2026-05-07 00:07 38.74453 -90.36689 549 ft 0 kts 252°